User: anonymous   Login
Location: Unspecified
(0.0000°N, 0.0000°E)
Time: 19:15:23
(UTC+00:00)
Language:

AO-91 - Orbit

View from above orbital plane
View from above orbital plane
View from above satellite
View from above satellite

Ground track
Ground track

The orbit data is extracted from the following two-line orbital elements,

1 43017U 17073E   18016.49352078  .00000888  00000-0  74806-4 0  9990
2 43017  97.6974 314.0628 0261640  45.6085 316.6228 14.77841890  8702
Epoch (UTC): 16 January 2018 11:50:40
Eccentricity: 0.0261640
inclination: 97.6974°
perigee height: 452 km
apogee height: 819 km
right ascension of ascending node: 314.0628°
argument of perigee: 45.6085°
revolutions per day: 14.77841890
mean anomaly at epoch: 316.6228°
orbit number at epoch: 870

The dashed part of the orbit path shows where the satellite is in the earth's shadow,  

DLR